TIME,DELAY(SENSOR),PRES,OXYGEN,RAWTEMP,T(OPTODE),TCPHASE,FLUOR,BETA(BETA700),BETA(BETA412),BETA(BETA440),CDOM,C(CSC),ED(ED411.90),ED(ED443.80),ED(ED489.40),ED(ED554.70),LU(LU412.20),LU(LU443.80),LU(LU489.40),LU(LU555.00),COMP,TILTX,TILTY,CHECK
1346103653,5802,904.2399902343750000,168.7749938964843800,399.7915039062500000,10.9874601364135740,38.8741989135742200,51,106,100,83,73,15457,2147455579,2147784054,2147575003,2147819446,2147308013,2147456621,2147742692,2148266441,3577,6,13,52092
1346107249,5798,11.6000003814697270,178.5924072265625000,482.4270935058594000,8.4292020797729500,39.5557594299316400,52,109,102,82,75,15437,2147441078,2147792073,2147582848,2147827894,2147307794,2147451794,2147756809,2148274715,3417,6,14,47551
1346110849,5805,1356.0000000000000000,189.0760040283203000,497.1557922363281000,7.9691362380981445,39.1084594726562500,52,110,100,82,75,15441,2147440000,2147792722,2147583350,2147826203,2147304448,2147452800,2147760475,2148276269,3528,6,14,35991
1346114449,5803,13.3000001907348630,193.6703033447265600,502.0556030273437500,7.8157720565795900,38.8983192443847660,51,106,100,81,76,15435,2147438948,2147795766,2147585590,2147830390,2147305755,2147449718,2147752923,2148275693,3398,6,14,44395
1346118049,5802,10.8000001907348630,193.9548034667968800,502.2251892089844000,7.8104591369628910,38.8826713562011700,51,106,102,82,74,15434,2147436443,2147792685,2147582582,2147830189,2147305801,2147451181,2147755684,2148277650,158,6,14,4779
1346121649,5802,1036.0000000000000000,192.2698059082031200,500.1701965332031000,7.8748040199279785,38.9543190002441400,52,106,102,83,74,15435,2147439012,2147793645,2147584237,2147830957,2147304841,2147450578,2147756379,2148279433,181,6,14,52775
1346125249,5807,14.6000003814697270,193.2653961181640600,501.4442138671875000,7.8349161148071290,38.9131202697753900,51,105,101,82,75,15427,2147439378,2147792530,2147582948,2147827867,2147305408,2147453705,2147760987,2148274139,579,6,14,58714
1346128849,5804,1047.0000000000000000,192.4667053222656200,501.6650085449219000,7.8280010223388670,38.9675407409668000,51,108,102,82,74,15425,2147442029,2147792173,2147584877,2147828141,2147305636,2147451209,2147759268,2148275456,545,6,14,27735
1346132449,5803,12.1999998092651370,187.5527038574218800,495.0379943847656000,8.0353736877441400,39.1704292297363300,51,107,102,81,75,15431,2147435126,2147791926,2147584155,2147829467,2147307154,2147459017,2147753810,2148273755,267,6,14,41027
1346136049,5805,13.5000000000000000,187.3760070800781200,492.2304077148437500,8.1231412887573240,39.1332893371582000,51,105,101,81,75,15430,2147444022,2147793316,2147583734,2147826669,2147304365,2147451392,2147757440,2148275081,242,6,14,43784
1346139649,5803,12.1000003814697270,186.6945953369140600,493.0783996582031000,8.0966386795043950,39.1930999755859400,51,105,100,82,74,15430,2147442889,2147794377,2147584658,2147827172,2147308315,2147451629,2147755702,2148275840,177,6,14,15066
1346143249,5803,13.0000000000000000,186.3950042724609400,492.0686950683594000,8.1281967163085940,39.1958007812500000,50,104,101,81,75,15431,2147442029,2147794130,2147584813,2147826212,2147307117,2147455076,2147757531,2148275282,3318,6,14,3717
1346146849,5804,1326.0000000000000000,184.8690032958984400,492.0646972656250000,8.1283187866210940,39.2964210510253900,50,108,100,83,75,15420,2147439378,2147794203,2147581979,2147828827,2147304393,2147453568,2147757705,2148274185,111,6,14,10347
1346150449,5802,13.5000000000000000,186.0075988769531200,493.1509094238281000,8.0943717956542970,39.2398796081543000,51,104,100,83,74,15427,2147437668,2147793517,2147579684,2147827995,2147305636,2147451675,2147757001,2148276306,3403,6,14,15165
1346154049,5803,1161.0000000000000000,182.6546936035156200,485.7561035156250000,8.3253364562988280,39.3358192443847660,51,108,100,82,74,15419,2147440484,2147796672,2147582390,2147827355,2147304612,2147451794,2147753883,2148272804,3290,6,14,22018
1346157649,5806,10.3000001907348630,181.8468017578125000,485.0736083984375000,8.3466367721557620,39.3793792724609400,52,108,102,82,76,15419,2147443620,2147793005,2147583725,2147829869,2147304256,2147453787,2147754550,2148275913,3538,6,14,20058
1346161249,5805,1099.0000000000000000,181.8126068115234400,485.0107116699219000,8.3485975265502930,39.3804016113281250,51,108,101,83,75,15412,2147442550,2147791670,2147582957,2147827510,2147305206,2147454912,2147752173,2148273142,257,6,14,42975
1346164849,5804,11.3999996185302730,182.0921020507812500,485.7052917480469000,8.3269243240356450,39.3738212585449200,51,106,101,83,74,15414,2147437677,2147790034,2147585024,2147827318,2147304301,2147456219,2147755190,2148274285,108,6,14,40827
1346168449,5802,12.8999996185302730,180.7467956542968800,484.6203002929687500,8.3607816696167000,39.4465599060058600,51,106,101,83,74,15414,2147441856,2147790528,2147583817,2147827437,2147304996,2147452690,2147750299,2148271798,3533,6,14,7556
1346172049,5805,1197.0000000000000000,181.8937988281250000,485.5498046875000000,8.3317756652832030,39.3836212158203100,51,107,101,82,75,15410,2147438564,2147794550,2147585426,2147826121,2147305124,2147451776,2147753956,2148273691,507,6,14,20189
1346175649,5804,11.8999996185302730,182.1764068603515600,485.4848937988281000,8.3338022232055660,39.3639984130859400,51,106,102,82,74,15414,2147439780,2147792100,2147585627,2147827163,2147304905,2147452571,2147753819,2148273709,743,6,14,422
1346179249,5804,12.0000000000000000,181.4877929687500000,484.2063903808594000,8.3736982345581050,39.3877906799316400,52,110,102,83,76,15412,2147438482,2147792027,2147582308,2147830994,2147305325,2147454308,2147756964,2148271634,770,6,14,52054
1346182849,5803,12.8000001907348630,181.6721038818359400,485.5914001464844000,8.3304786682128900,39.3997688293457000,51,107,100,83,75,15403,2147440155,2147788297,2147582418,2147826916,2147304000,2147452672,2147752064,2148273636,2286,6,14,65214
1346186449,5803,12.8000001907348630,181.5348968505859400,485.1990966796875000,8.3427209854125980,39.4026603698730500,51,109,102,84,75,15403,2147439177,2147790793,2147583232,2147827465,2147302381,2147453211,2147756059,2148272265,3298,6,14,27781
1346190049,5802,1114.0000000000000000,181.5661010742187500,485.7030029296875000,8.3269939422607420,39.4083900451660160,52,107,100,82,74,15397,2147439780,2147792146,2147581412,2147825590,2147308827,2147452873,2147752804,2148273517,1142,6,14,55458
1346193649,5802,10.6999998092651370,180.7346038818359400,487.0501098632812500,8.2849483489990230,39.4885292053222660,50,106,101,82,75,15398,2147438592,2147793398,2147579794,2147828772,2147308041,2147451712,2147759689,2148275492,3572,6,14,4639
1346197249,5803,11.1999998092651370,182.7761993408203000,487.8138122558594000,8.2611017227172850,39.3632507324218750,51,109,102,82,74,15396,2147439158,2147788534,2147584557,2147828662,2147306395,2147452571,2147757732,2148274038,177,6,14,34715
1346200849,5804,11.1000003814697270,183.8511962890625000,489.6679077148437500,8.2032022476196290,39.3237609863281250,51,116,100,83,75,15396,2147438637,2147794614,2147584365,2147829248,2147304009,2147451245,2147759332,2148275346,194,6,14,50135
1346204449,5804,1097.0000000000000000,184.1078948974609400,490.1643981933594000,8.1876935958862300,39.3144302368164060,51,112,102,83,76,15395,2147437622,2147791588,2147583597,2147825517,2147306861,2147453174,2147760018,2148273536,143,6,14,17476
1346208049,5802,10.1999998092651370,183.7655029296875000,489.6430969238281000,8.2039756774902340,39.3282814025878900,51,107,101,82,76,15394,2147440969,2147790372,2147579428,2147829458,2147304969,2147452955,2147759707,2148276041,559,6,14,57250
1346211649,5802,11.3999996185302730,184.3706054687500000,490.2087097167969000,8.1863088607788090,39.2976608276367200,52,105,100,81,75,15388,2147439341,2147792347,2147583497,2147827574,2147309659,2147454454,2147759716,2148275181,689,6,14,14119
1346215249,5805,1214.0000000000000000,183.5207977294922000,489.2272949218750000,8.2169637680053710,39.3379096984863300,52,111,101,82,75,15385,2147438838,2147793206,2147581248,2147829476,2147305572,2147451126,2147756928,2148275931,774,6,14,55547
1346218849,5800,10.1000003814697270,183.4515991210937500,487.7987060546875000,8.2615747451782230,39.3174095153808600,51,108,101,81,74,15391,2147440137,2147791734,2147582427,2147826523,2147305517,2147451520,2147755072,2148272978,762,6,14,16175
1346222449,5800,13.1000003814697270,182.5388946533203000,486.3193054199219000,8.3077602386474610,39.3540496826171900,51,110,100,82,75,15391,2147440612,2147791360,2147583350,2147827958,2147305371,2147452160,2147753398,2148275520,3503,6,14,8305
1346226049,5807,1273.0000000000000000,182.1551971435547000,486.1657104492187500,8.3125534057617190,39.3775901794433600,50,106,100,127,75,15390,2147439296,2147793865,2147586148,2147826313,2147304548,2147453046,2147755428,2148274148,10,6,14,32068
1346229649,5804,12.0000000000000000,182.0935974121093800,486.2561950683594000,8.3097276687622070,39.3828010559082000,51,107,102,82,75,15389,2147441993,2147788470,2147584118,2147827044,2147308141,2147447040,2147756297,2148278518,3158,6,14,28048
1346233249,5805,10.1999998092651370,181.9936981201172000,486.5497131347656000,8.3005685806274410,39.3950614929199200,50,105,102,82,75,15388,2147440182,2147793051,2147584192,2147826157,2147309714,2147450541,2147757558,2148271222,156,6,14,54644
1346236849,5805,1056.0000000000000000,181.4526977539062500,489.2178955078125000,8.2172594070434570,39.4770393371582000,51,107,101,83,74,15370,2147443401,2147793197,2147581330,2147827547,2147303168,2147452717,2147755291,2148274934,461,6,14,6871
1346240449,5805,12.1999998092651370,181.2976074218750000,489.4361877441406000,8.2104396820068360,39.4911994934082000,51,106,100,82,74,15366,2147437513,2147796333,2147582793,2147828717,2147303835,2147452224,2147754660,2148276068,417,6,14,17670
1346244049,5807,12.8999996185302730,182.1833953857422000,488.6890869140625000,8.2337732315063480,39.4187583923339840,52,107,100,84,74,15368,2147444434,2147793481,2147585682,2147829357,2147306304,2147456100,2147760722,2148274605,603,6,14,1482
1346247057,5804,12.3999996185302730,181.6833953857422000,488.6973876953125000,8.2335119247436520,39.4525489807128900,51,106,101,81,75,15366,2147441536,2147794441,2147581696,2147827712,2147305298,2147449819,2147753115,2148275181,505,6,14,42735
